This is the latest recevied weather packets stored in our database for station/object KD9DOE. If no packets are shown the sender has not sent any weather packets the latest 10 day(s).
| Time | Temp. | Humidity | Pressure | Rain* | Wind** | Luminosity | Snow |
|---|---|---|---|---|---|---|---|
| 1777831565 | 19.44° C | 38% | 1006.5 hPa | 0 mm | - | 785 W/m² | - |
| 1777831263 | 18.89° C | 42% | 1006.5 hPa | 0 mm | - | 782 W/m² | - |
| 1777830959 | 18.89° C | 41% | 1006.9 hPa | 0 mm | - | 783 W/m² | - |
| 1777830656 | 18.33° C | 42% | 1006.8 hPa | 0 mm | - | 780 W/m² | - |
| 1777830353 | 17.78° C | 41% | 1007 hPa | 0 mm | - | 778 W/m² | - |
| 1777830050 | 17.78° C | 42% | 1007.3 hPa | 0 mm | - | 772 W/m² | - |
| 1777829745 | 17.78° C | 42% | 1007.1 hPa | 0 mm | - | 766 W/m² | - |
| 1777829441 | 17.78° C | 42% | 1007.2 hPa | 0 mm | - | 765 W/m² | - |
| 1777829139 | 17.22° C | 42% | 1007.1 hPa | 0 mm | - | 758 W/m² | - |
| 1777828836 | 17.22° C | 42% | 1007.1 hPa | 0 mm | - | 752 W/m² | - |
| 1777828532 | 17.78° C | 40% | 1007.4 hPa | 0 mm | - | 745 W/m² | - |
| 1777828230 | 17.22° C | 41% | 1007.4 hPa | 0 mm | - | 739 W/m² | - |
| 1777827926 | 17.22° C | 41% | 1007.4 hPa | 0 mm | - | 734 W/m² | - |
| 1777827624 | 17.22° C | 41% | 1007.5 hPa | 0 mm | - | 728 W/m² | - |
| 1777827321 | 17.22° C | 40% | 1007.4 hPa | 0 mm | - | 722 W/m² | - |
| 1777827017 | 16.67° C | 41% | 1007.6 hPa | 0 mm | - | 713 W/m² | - |
| 1777826714 | 16.67° C | 41% | 1007.7 hPa | 0 mm | - | 705 W/m² | - |
| 1777826411 | 16.67° C | 43% | 1007.8 hPa | 0 mm | - | 698 W/m² | - |
| 1777826108 | 16.67° C | 45% | 1007.7 hPa | 0 mm | - | 692 W/m² | - |
| 1777825805 | 16.67° C | 45% | 1007.9 hPa | 0 mm | - | 684 W/m² | - |
| 1777825502 | 16.67° C | 45% | 1007.9 hPa | 0 mm | - | 677 W/m² | - |
| 1777825200 | 16.11° C | 47% | 1008 hPa | 0 mm | - | 665 W/m² | - |
| 1777824896 | 16.67° C | 46% | 1008.3 hPa | 0 mm | - | 658 W/m² | - |
| 1777824592 | 16.67° C | 46% | 1008.1 hPa | 0 mm | - | 653 W/m² | - |
| 1777824289 | 16.11° C | 47% | 1008.3 hPa | 0 mm | - | 647 W/m² | - |
* Rain latest hour (hover to see other rain measurements)
** Current wind speed in m/s (hover to see current wind gust speed)